This is the latest recevied weather packets stored in our database for station/object N2QKV-13. If no packets are shown the sender has not sent any weather packets the latest 10 day(s).
| Time | Temp. | Humidity | Pressure | Rain* | Wind** | Luminosity | Snow |
|---|---|---|---|---|---|---|---|
| 1777536004 | 9.44° C | 92% | 1007.8 hPa | 1.78 mm | - | - | - |
| 1777535704 | 9.44° C | 92% | 1007.8 hPa | 2.03 mm | - | - | - |
| 1777535404 | 9.44° C | 92% | 1007.9 hPa | 1.78 mm | - | - | - |
| 1777535104 | 9.44° C | 92% | 1008 hPa | 1.78 mm | - | - | - |
| 1777534803 | 9.44° C | 92% | 1008.1 hPa | 1.52 mm | - | - | - |
| 1777534503 | 9.44° C | 92% | 1008 hPa | 1.52 mm | - | - | - |
| 1777534204 | 9.44° C | 92% | 1008.2 hPa | 1.78 mm | - | - | - |
| 1777533904 | 9.44° C | 92% | 1008.1 hPa | 2.54 mm | - | - | - |
| 1777533603 | 9.44° C | 92% | 1008.2 hPa | 3.56 mm | - | - | - |
| 1777533304 | 9.44° C | 92% | 1008.2 hPa | 3.56 mm | - | - | - |
| 1777533004 | 9.44° C | 92% | 1008.1 hPa | 3.81 mm | - | - | - |
| 1777532703 | 9.44° C | 92% | 1008.1 hPa | 3.81 mm | - | - | - |
| 1777532403 | 9.44° C | 92% | 1008.1 hPa | 4.06 mm | - | - | - |
| 1777532104 | 9.44° C | 92% | 1008.2 hPa | 3.81 mm | - | - | - |
| 1777531804 | 9.44° C | 92% | 1008.1 hPa | 4.06 mm | - | - | - |
| 1777531504 | 9.44° C | 92% | 1008.2 hPa | 4.06 mm | - | - | - |
| 1777531203 | 9.44° C | 92% | 1008 hPa | 4.32 mm | - | - | - |
| 1777530904 | 9.44° C | 92% | 1008 hPa | 4.32 mm | - | - | - |
| 1777530603 | 9.44° C | 92% | 1008.1 hPa | 3.81 mm | - | - | - |
| 1777530303 | 9.44° C | 92% | 1008.1 hPa | 3.05 mm | - | - | - |
| 1777530004 | 9.44° C | 92% | 1008.6 hPa | 1.78 mm | - | - | - |
| 1777529704 | 9.44° C | 92% | 1008.7 hPa | 1.27 mm | - | - | - |
| 1777529404 | 9.44° C | 92% | 1008.4 hPa | 0.76 mm | - | - | - |
| 1777529104 | 8.89° C | 92% | 1008.1 hPa | 0.76 mm | - | - | - |
| 1777528804 | 8.89° C | 92% | 1008.1 hPa | 0.51 mm | - | - | - |
* Rain latest hour (hover to see other rain measurements)
** Current wind speed in m/s (hover to see current wind gust speed)